Location: Pl�tzky
(52.0521°N, 11.8020°E)
Time: 10:32:25
(UTC+00:00)

N. Korean satellite - Pass Details

Date: 05 February 2021
Orbit: 451 x 502 km, 97.2° (Epoch: 07 March)

Event Time Altitude Azimuth Distance (km) Brightness Sun altitude
Rises 04:29:03 0° 17° (NNE) 2,487 10.4 -21.3°
Reaches altitude 10° 04:31:09 10° 24° (NNE) 1,604 9.5 -21.0°
Maximum altitude 04:34:29 47° 100° (E) 611 7.4 -20.4°
Drops below altitude 10° 04:37:46 10° 175° (S) 1,584 9.2 -19.9°
Sets 04:39:50 0° 181° (S) 2,452 10.1 -19.6°
